Wind_Speed
2 2 2 3 3 4 5 6 6 6 7 7 8 9 9 9 9 9 9 8 8 8 8 8 8 7 7 6 6 6 6 6 5 4 4 6 6 7 7 7 8 8 9 9 9 9 9 9 8
1 2 3 3 3 4 5 5 6 6 7 8 8 9 9 9 10 10 10 10 10 9 9 9 9 8 7 7 7 7 6 6 6 6 5 6 6 7 7 8 8 8 9 9 10 10 11 11 10
2 3 3 3 3 5 5 5 6 7 7 8 9 9 9 9 10 10 10 10 10 9 9 9 8 8 8 8 8 8 7 7 7 7 7 7 7 8 8 8 8 8 9 9 10 10 11 11 11
3 3 3 3 4 4 5 6 6 8 8 8 9 9 9 9 10 10 10 10 10 9 9 9 8 9 9 9 9 9 8 8 8 8 8 8 9 9 9 9 9 9 10 10 11 11 11 11 11
3 3 3 4 5 5 6 7 7 7 8 8 8 8 8 8 8 9 9 9 9 9 9 9 8 8 8 8 9 8 8 8 8 8 9 9 9 9 9 9 9 9 10 11 11 11 11 11 11
3 3 3 5 5 5 5 6 7 6 7 7 7 7 7 7 7 8 8 8 9 9 9 8 8 8 7 8 8 8 8 8 8 8 8 9 9 10 10 10 9 9 10 10 11 11 11 11 11
3 4 4 5 5 5 5 6 6 7 7 6 7 6 5 6 7 7 8 8 8 9 8 8 8 8 8 7 8 8 8 8 7 7 8 8 9 9 9 10 9 10 10 10 11 11 12 12 12
4 5 5 5 6 6 5 5 6 6 6 6 6 6 6 6 6 7 7 7 7 7 8 8 8 8 8 7 7 7 8 8 8 8 8 8 7 8 8 9 10 10 11 11 12 12 12 13 13
4 5 6 6 6 6 5 5 5 5 5 5 5 5 6 6 6 6 6 6 6 6 6 7 7 7 7 7 7 7 7 7 7 7 8 7 7 7 8 9 10 10 11 11 12 13 13 13 13
5 6 6 6 6 5 5 5 5 4 4 5 5 4 5 5 5 5 5 5 5 6 6 6 6 6 7 7 8 7 7 7 7 7 8 8 8 8 8 9 10 11 11 12 12 13 13 13 13
5 6 6 6 6 5 5 5 5 5 5 5 5 5 5 5 5 5 5 5 5 6 6 6 7 7 7 7 7 7 8 8 8 7 8 8 9 9 9 10 11 11 12 12 12 13 13 13 13
5 6 5 5 5 5 5 6 6 6 6 6 6 6 5 5 5 5 5 5 6 6 6 6 7 7 7 7 7 7 8 8 8 7 7 8 9 9 9 10 10 11 11 12 12 12 13 13 13
5 5 5 4 4 5 5 6 7 7 7 7 7 7 6 6 6 6 7 7 7 7 7 7 7 7 7 7 7 8 8 8 8 8 8 8 9 10 10 10 10 11 11 12 12 12 13 13 13
5 5 5 5 5 6 6 6 7 7 8 7 7 7 6 6 7 7 7 8 8 8 7 8 8 8 7 7 8 8 8 8 8 8 8 8 8 9 10 10 10 11 11 11 11 11 12 12 12
5 5 5 5 6 7 7 7 7 8 8 8 8 8 7 6 7 7 7 7 8 8 8 8 8 8 8 7 7 8 8 8 8 8 8 8 8 9 10 10 10 11 11 11 11 11 11 11 11
5 5 6 6 7 8 8 8 8 8 8 9 9 8 8 7 8 8 8 8 9 8 8 9 9 9 8 8 8 8 8 8 8 9 9 9 9 10 10 10 10 11 10 10 10 10 10 10 11
5 6 8 8 7 8 9 9 9 9 9 10 9 9 9 9 9 9 10 10 10 10 10 10 10 10 9 9 9 9 9 9 9 9 10 11 11 11 11 10 11 10 10 10 10 10 10 10 11
7 8 9 9 9 10 10 10 10 9 10 11 10 10 10 10 10 10 10 11 11 11 11 10 10 10 10 10 10 10 10 10 10 10 10 11 12 12 13 13 12 11 11 11 11 11 11 11 11
8 9 10 10 10 11 11 11 11 10 11 11 11 11 11 11 11 11 11 11 11 11 12 11 11 11 11 11 11 11 11 11 11 11 12 12 12 13 13 14 13 13 12 12 12 12 12 12 12
10 10 10 10 11 12 12 11 11 11 11 12 12 12 12 12 11 11 11 11 12 12 13 13 13 13 12 12 12 12 12 12 12 13 13 13 13 13 13 13 13 14 14 13 13 13 13 13 13
11 11 11 12 12 13 13 12 12 11 11 11 13 13 13 13 12 12 12 12 12 13 13 13 13 13 13 13 13 13 13 13 14 14 14 14 14 14 14 14 14 14 14 14 14 14 14 13 13
12 12 12 12 13 13 13 13 12 13 12 12 13 13 13 14 13 12 13 12 13 13 13 13 14 14 13 13 14 14 14 14 14 15 15 14 14 15 15 15 15 15 15 14 14 14 13 13 13
13 12 12 12 13 13 13 13 14 13 13 13 14 14 14 14 14 14 14 14 13 14 14 13 14 14 14 14 14 15 15 15 15 16 16 16 16 16 16 16 16 16 15 15 14 14 14 14 14
13 13 13 13 13 13 13 14 15 14 15 15 15 14 15 15 14 14 14 14 13 13 13 14 14 14 15 15 15 15 15 16 16 16 17 17 17 17 17 17 17 16 16 16 15 15 15 14 14
14 13 12 12 12 14 14 15 17 15 16 16 16 15 14 15 15 15 15 15 15 14 14 14 15 15 16 16 16 16 16 17 17 17 17 17 17 18 18 17 17 17 17 17 16 16 16 15 15
14 14 13 12 11 13 14 17 18 16 17 17 17 17 16 16 16 16 15 15 15 15 15 15 15 16 16 16 17 17 17 17 17 18 18 18 18 18 18 18 18 17 17 17 17 17 16 16 16
15 15 14 14 13 13 14 17 17 17 16 18 18 17 17 16 16 16 16 15 16 15 15 16 16 16 16 17 17 17 17 18 18 18 18 18 18 19 19 19 18 18 18 18 17 17 17 17 17
15 16 15 16 16 15 14 16 17 16 16 17 18 18 18 17 17 16 17 16 15 15 16 16 16 16 16 17 17 18 18 19 19 19 19 19 19 19 19 19 19 19 19 18 17 17 17 17 17
16 16 16 17 17 17 17 18 18 16 17 17 17 17 16 17 17 16 17 17 17 16 16 17 17 17 17 17 18 18 18 19 19 19 19 19 19 19 19 19 19 18 18 18 17 17 18 17 17
17 17 17 18 18 19 19 20 19 19 17 18 17 15 16 17 17 17 18 18 18 17 17 17 18 17 17 18 18 18 18 19 19 19 19 19 20 20 20 19 19 18 18 18 18 17 18 18 18
Wind_Direction
227 228 230 228 239 242 252 256 259 259 257 255 257 255 257 258 261 264 265 268 268 270 271 274 276 279 284 283 279 282 289 292 283 271 269 269 264 256 247 242 240 241 243 245 245 244 246 246 248
225 232 235 235 234 239 250 262 265 265 262 261 262 261 259 258 262 264 265 268 269 270 271 271 274 276 278 277 278 277 280 285 286 283 278 269 265 260 248 244 243 245 246 248 249 247 247 247 249
234 237 232 235 239 252 260 268 269 269 268 267 267 267 266 263 262 262 264 266 268 269 269 271 276 278 278 278 278 277 278 279 281 282 282 276 269 267 259 255 254 254 257 257 257 253 250 250 251
240 245 239 242 251 260 263 265 266 270 272 271 270 269 269 267 264 263 264 266 268 268 269 271 275 278 280 280 280 278 276 277 278 281 283 282 276 270 261 259 261 261 261 261 258 256 253 252 251
242 247 255 260 262 268 272 272 270 270 273 273 275 273 268 270 269 267 267 268 268 268 269 270 272 275 276 277 279 276 275 275 280 281 283 283 279 274 269 265 264 264 265 264 260 258 255 255 254
248 250 267 264 270 275 282 281 277 277 276 275 273 274 272 271 271 268 266 270 267 268 270 271 271 269 270 274 274 275 277 278 279 281 284 289 289 275 266 263 264 265 267 267 264 263 261 260 261
259 268 261 265 268 275 282 281 281 279 278 279 275 275 275 271 271 271 269 271 272 270 268 270 272 269 268 272 273 274 275 281 286 290 295 300 296 283 267 265 266 267 269 270 266 262 260 259 261
270 259 258 265 268 278 282 280 280 281 281 276 276 278 278 278 279 278 274 272 271 272 270 268 270 272 271 274 278 280 283 290 293 298 299 300 299 287 270 268 269 269 271 271 269 263 261 260 260
273 262 254 256 266 275 277 277 281 284 283 275 275 279 281 279 280 279 279 276 272 273 282 285 282 283 283 287 291 294 299 299 299 301 303 305 303 289 279 276 275 273 272 272 268 264 263 263 262
274 266 259 260 270 275 278 280 283 282 280 278 280 278 279 279 278 277 278 280 278 277 283 288 292 289 285 287 291 295 298 299 303 302 303 305 305 298 290 285 282 279 276 272 270 267 265 266 264
263 263 260 258 268 274 281 286 289 285 283 281 283 275 271 274 277 277 281 284 286 285 284 288 290 290 292 290 294 297 299 298 297 298 302 304 305 299 295 291 287 284 281 279 276 272 271 270 265
267 262 261 261 269 276 280 284 289 288 285 282 280 274 273 271 275 279 279 284 285 287 287 287 291 292 292 293 296 299 299 298 295 297 299 302 301 300 299 295 292 288 286 282 279 276 273 269 264
274 267 263 260 267 274 278 280 281 286 283 285 286 280 271 266 268 274 278 279 281 284 288 287 291 297 297 292 294 296 296 300 298 299 302 300 301 301 302 301 298 294 292 291 286 279 276 271 263
280 276 268 266 269 271 276 282 282 281 281 284 286 281 273 271 272 273 278 278 280 282 286 290 291 295 298 298 298 297 294 298 301 301 305 306 306 305 303 303 300 297 294 292 292 289 286 276 266
286 280 274 279 278 277 275 278 283 281 280 284 285 282 277 269 272 275 277 279 279 279 284 287 289 293 296 296 297 296 297 299 300 302 304 308 311 312 309 305 302 300 297 293 290 290 287 281 273
293 290 286 285 284 283 281 280 279 279 281 284 283 282 280 273 274 276 277 278 280 280 284 287 287 289 291 292 293 293 295 298 299 300 303 305 309 313 314 310 306 304 302 296 291 289 287 282 276
288 287 286 283 285 284 287 285 280 279 279 282 281 279 279 278 275 273 273 276 278 280 283 285 286 288 288 289 289 290 293 296 298 299 301 301 305 307 309 309 309 306 303 298 290 287 286 285 280
282 277 283 287 285 284 286 287 282 282 281 281 281 278 278 278 277 274 273 275 278 280 283 284 285 288 289 289 290 289 290 293 296 299 302 303 304 305 307 307 305 303 304 301 294 288 285 284 284
272 273 275 280 284 284 284 285 284 280 281 282 281 278 278 278 279 276 275 276 278 279 281 282 283 284 287 288 287 288 289 290 292 294 298 301 304 304 305 305 304 301 302 303 300 293 287 285 283
274 273 272 277 280 282 283 282 281 284 282 279 279 280 281 281 281 284 280 279 280 279 279 279 282 284 286 287 287 286 286 287 289 293 296 298 301 302 301 301 301 302 303 301 298 296 293 290 288
272 274 273 275 278 279 280 280 277 280 281 279 279 278 281 280 280 281 282 281 282 282 280 278 281 283 284 285 285 285 284 284 286 289 291 294 296 298 298 298 298 299 300 299 296 294 293 291 288
271 274 275 276 275 277 277 281 280 279 278 279 279 277 278 279 281 283 282 281 284 283 279 278 280 281 282 285 285 284 283 283 284 287 289 291 293 296 296 296 296 295 296 297 295 292 291 290 289
269 271 272 271 273 276 275 278 281 277 276 280 280 278 279 279 278 281 282 280 281 282 280 279 280 280 281 283 284 283 282 281 282 284 286 289 291 294 295 295 296 296 294 293 292 291 289 287 285
270 269 270 271 271 273 273 274 275 277 280 283 284 279 277 278 278 277 278 278 279 281 281 283 281 281 282 283 283 282 280 280 282 284 285 287 290 292 293 294 294 293 292 291 289 289 287 286 284
270 267 268 274 279 281 277 272 271 275 277 281 283 285 282 279 277 276 277 277 278 280 282 283 283 282 283 283 283 282 281 281 281 283 285 286 288 290 291 292 291 291 290 290 287 286 285 283 282
265 263 260 266 273 281 282 276 277 277 275 278 280 282 282 281 278 275 276 276 277 280 283 283 284 283 283 283 283 282 280 281 282 282 283 285 287 289 291 291 290 289 289 290 288 284 283 281 281
262 259 261 262 263 263 270 279 280 280 277 278 278 279 278 279 277 276 277 277 277 279 282 283 282 282 282 282 281 280 280 281 282 284 285 285 286 289 289 289 289 289 289 289 288 286 284 282 281
261 261 260 259 260 260 264 269 278 280 278 276 277 279 276 276 277 277 277 276 276 279 283 283 283 283 282 281 280 280 281 281 282 284 285 286 287 288 290 289 288 287 286 287 286 286 285 283 281
262 258 257 258 261 264 261 266 274 277 277 281 281 281 277 276 276 277 277 276 276 278 282 283 285 285 285 284 281 281 280 280 282 284 285 285 286 288 289 288 288 286 284 285 285 285 285 284 283
265 262 261 261 261 262 266 266 273 278 277 280 280 276 278 275 273 275 277 280 282 283 283 283 283 285 287 286 284 283 282 281 282 282 284 285 286 288 287 286 286 286 284 282 282 284 284 283 283
Height
5847 5847 5848 5849 5850 5850 5849 5850 5850 5850 5851 5851 5852 5852 5853 5853 5855 5857 5855 5854 5855 5855 5855 5856 5855 5856 5856 5856 5856 5855 5855 5855 5855 5855 5855 5855 5855 5855 5855 5856 5856 5857 5858 5858 5859 5860 5861 5861 5862
5847 5847 5848 5849 5849 5849 5849 5849 5849 5850 5850 5850 5850 5851 5852 5852 5853 5853 5853 5853 5854 5854 5854 5854 5854 5854 5855 5855 5854 5854 5854 5854 5854 5854 5854 5854 5854 5854 5854 5855 5855 5856 5856 5857 5858 5858 5859 5860 5860
5846 5846 5848 5848 5847 5848 5848 5848 5849 5848 5849 5849 5849 5850 5851 5851 5851 5851 5851 5852 5852 5852 5853 5853 5853 5853 5853 5853 5853 5853 5853 5853 5853 5853 5853 5853 5852 5852 5853 5853 5854 5854 5855 5856 5856 5857 5857 5858 5859
5846 5847 5847 5847 5847 5847 5847 5847 5847 5847 5848 5848 5848 5849 5849 5849 5850 5850 5850 5850 5851 5851 5851 5851 5851 5852 5852 5852 5852 5852 5852 5852 5852 5852 5851 5851 5851 5850 5851 5852 5852 5853 5854 5854 5855 5855 5856 5857 5857
5845 5846 5847 5846 5846 5847 5846 5846 5846 5846 5847 5847 5847 5848 5848 5848 5848 5848 5849 5849 5849 5849 5850 5850 5850 5850 5850 5850 5850 5850 5850 5850 5850 5850 5850 5849 5848 5848 5848 5849 5850 5851 5852 5853 5853 5854 5854 5855 5856
5845 5845 5846 5845 5845 5845 5845 5845 5845 5845 5845 5846 5846 5847 5847 5847 5847 5847 5848 5848 5848 5848 5848 5848 5849 5849 5849 5849 5849 5849 5849 5849 5848 5848 5848 5847 5844 5843 5844 5846 5848 5849 5850 5851 5851 5852 5853 5853 5854
5845 5844 5844 5844 5844 5845 5845 5844 5844 5844 5844 5845 5845 5846 5846 5846 5846 5846 5846 5847 5847 5847 5847 5847 5847 5847 5847 5847 5847 5847 5847 5847 5847 5847 5846 5844 5841 5838 5840 5844 5846 5847 5848 5848 5849 5850 5851 5851 5852
5842 5843 5843 5843 5843 5844 5844 5843 5843 5843 5843 5844 5844 5844 5845 5845 5845 5845 5845 5845 5846 5846 5846 5846 5846 5846 5846 5846 5846 5846 5846 5846 5846 5845 5845 5843 5840 5838 5840 5843 5844 5845 5846 5846 5847 5848 5848 5849 5850
5841 5843 5842 5842 5842 5843 5843 5843 5843 5843 5843 5843 5843 5844 5844 5844 5844 5844 5844 5845 5845 5845 5845 5845 5845 5845 5845 5845 5845 5845 5845 5845 5844 5844 5844 5843 5841 5840 5841 5842 5843 5844 5844 5844 5845 5845 5846 5846 5847
5841 5841 5841 5841 5841 5842 5842 5842 5842 5842 5842 5842 5842 5843 5843 5843 5843 5843 5844 5844 5844 5844 5844 5844 5844 5844 5844 5844 5844 5844 5844 5844 5843 5843 5843 5842 5842 5841 5841 5842 5842 5842 5842 5842 5843 5843 5844 5844 5845
5840 5840 5840 5840 5840 5841 5841 5841 5841 5841 5841 5842 5842 5842 5842 5842 5842 5842 5842 5842 5843 5843 5843 5843 5843 5843 5843 5843 5843 5843 5843 5843 5842 5842 5842 5841 5841 5841 5840 5840 5840 5840 5840 5840 5840 5841 5841 5842 5842
5839 5839 5839 5839 5840 5840 5840 5840 5841 5841 5841 5841 5841 5841 5841 5841 5842 5842 5841 5841 5842 5842 5842 5842 5842 5842 5842 5842 5842 5842 5842 5841 5841 5841 5841 5840 5840 5840 5839 5839 5839 5838 5838 5838 5838 5838 5839 5839 5840
5838 5838 5838 5838 5839 5839 5839 5839 5840 5840 5840 5840 5840 5840 5840 5841 5841 5841 5841 5841 5841 5841 5841 5842 5841 5841 5841 5841 5841 5841 5841 5840 5840 5840 5840 5839 5839 5838 5838 5837 5837 5836 5836 5836 5836 5836 5836 5837 5837
5836 5837 5837 5837 5838 5838 5838 5839 5839 5839 5839 5839 5839 5839 5839 5839 5839 5840 5840 5840 5840 5840 5840 5840 5840 5840 5840 5840 5840 5840 5839 5839 5839 5839 5838 5838 5837 5837 5836 5836 5835 5834 5834 5833 5833 5834 5834 5834 5834
5835 5836 5836 5836 5836 5836 5837 5837 5837 5837 5837 5837 5837 5837 5837 5837 5838 5838 5838 5838 5839 5839 5839 5839 5839 5839 5839 5839 5839 5838 5838 5838 5838 5838 5837 5837 5836 5835 5835 5834 5833 5833 5832 5831 5831 5831 5831 5831 5832
5834 5834 5835 5835 5835 5835 5836 5836 5836 5835 5836 5836 5836 5836 5836 5836 5836 5836 5836 5837 5837 5837 5837 5837 5837 5837 5837 5837 5837 5837 5837 5837 5836 5836 5836 5835 5835 5834 5833 5832 5832 5831 5830 5830 5829 5829 5829 5829 5829
5833 5833 5833 5833 5834 5833 5834 5834 5834 5834 5834 5834 5834 5834 5834 5834 5834 5834 5835 5835 5835 5835 5835 5835 5835 5835 5835 5835 5835 5835 5835 5835 5835 5835 5834 5834 5833 5832 5831 5831 5830 5829 5828 5828 5827 5827 5827 5827 5827
5831 5831 5831 5831 5832 5832 5832 5832 5832 5832 5832 5832 5832 5832 5832 5832 5832 5832 5832 5832 5833 5833 5833 5833 5833 5833 5833 5833 5833 5833 5833 5833 5833 5833 5832 5831 5831 5830 5829 5828 5828 5827 5826 5826 5825 5825 5824 5824 5824
5829 5830 5830 5830 5830 5830 5830 5829 5829 5829 5829 5830 5830 5830 5830 5830 5830 5830 5830 5830 5830 5830 5831 5831 5831 5831 5831 5831 5831 5831 5831 5831 5831 5830 5830 5829 5828 5828 5827 5826 5825 5825 5824 5824 5823 5823 5822 5822 5822
5828 5828 5828 5828 5828 5827 5827 5827 5827 5827 5827 5827 5827 5827 5827 5827 5827 5827 5827 5827 5828 5828 5828 5828 5828 5828 5828 5828 5828 5828 5828 5828 5828 5828 5827 5827 5826 5825 5825 5824 5823 5822 5822 5821 5821 5820 5820 5819 5819
5825 5825 5825 5825 5825 5824 5825 5825 5824 5825 5825 5825 5824 5825 5825 5825 5824 5825 5825 5825 5825 5825 5825 5825 5825 5825 5825 5825 5825 5825 5825 5825 5825 5825 5825 5824 5823 5823 5822 5821 5821 5820 5819 5818 5818 5817 5817 5816 5816
5822 5823 5822 5822 5822 5822 5822 5822 5822 5821 5822 5822 5822 5822 5822 5822 5822 5822 5822 5822 5822 5822 5822 5822 5822 5822 5822 5822 5822 5822 5822 5822 5822 5822 5821 5821 5820 5820 5819 5818 5817 5817 5816 5815 5815 5814 5814 5813 5813
5819 5820 5819 5819 5819 5819 5818 5818 5819 5818 5818 5819 5819 5819 5818 5819 5819 5819 5819 5819 5819 5819 5818 5818 5819 5819 5819 5818 5818 5818 5818 5818 5818 5818 5818 5817 5817 5816 5815 5815 5814 5813 5813 5812 5811 5811 5811 5810 5810
5816 5817 5816 5816 5815 5816 5816 5816 5816 5815 5815 5815 5816 5816 5815 5816 5816 5816 5816 5816 5816 5816 5816 5815 5816 5816 5815 5815 5815 5815 5815 5815 5815 5814 5814 5814 5813 5812 5812 5811 5810 5810 5809 5808 5808 5807 5807 5807 5806
5813 5813 5813 5812 5812 5812 5813 5813 5813 5812 5812 5812 5812 5812 5812 5812 5812 5812 5813 5813 5812 5812 5812 5812 5812 5812 5811 5811 5811 5810 5810 5810 5810 5810 5810 5809 5809 5808 5808 5807 5806 5805 5805 5804 5803 5803 5803 5803 5803
5809 5810 5810 5810 5811 5811 5810 5809 5810 5809 5809 5809 5809 5809 5809 5809 5809 5809 5809 5809 5809 5809 5809 5808 5808 5808 5807 5807 5807 5806 5806 5806 5806 5806 5806 5805 5805 5804 5803 5802 5802 5801 5800 5800 5799 5799 5799 5799 5798
5805 5805 5806 5807 5807 5807 5807 5806 5806 5806 5806 5806 5805 5806 5805 5805 5805 5805 5805 5805 5805 5805 5805 5804 5804 5804 5803 5803 5802 5802 5802 5801 5801 5801 5801 5801 5800 5800 5799 5798 5797 5796 5796 5795 5795 5794 5794 5794 5794
5802 5802 5803 5803 5803 5803 5804 5803 5803 5802 5802 5802 5801 5801 5801 5801 5801 5801 5801 5801 5801 5801 5800 5800 5799 5799 5799 5798 5798 5797 5797 5797 5796 5796 5796 5796 5795 5795 5794 5793 5792 5792 5791 5791 5790 5790 5790 5789 5789
5798 5798 5798 5798 5799 5799 5799 5801 5799 5798 5798 5798 5797 5797 5797 5797 5797 5797 5797 5797 5796 5796 5796 5795 5795 5794 5794 5793 5793 5792 5792 5792 5791 5791 5791 5791 5790 5790 5789 5788 5788 5787 5787 5786 5786 5786 5785 5785 5784
5793 5794 5794 5795 5795 5795 5795 5798 5794 5793 5793 5793 5792 5793 5792 5793 5793 5793 5792 5792 5792 5791 5791 5791 5790 5790 5789 5788 5788 5788 5787 5787 5786 5786 5786 5785 5785 5785 5784 5783 5783 5782 5782 5782 5781 5781 5780 5780 5780